Language: 


Des rapports , des résumés tant et plus, au choix de chacun....


Données statistiques de la station
Quotidien Rapport Février 4, 2018 Unités:  Métrique    Anglais   les deux
« Précédent Jour
Suivant Jour »
Quotidien Hebdomadaire Mensuel Annuel Actuel
  Haut: Bas: Moyen:
Température: -17.8 °C -17.7 °C -16.4 °C
Pt de rosée: -17.8 °C -19.4 °C -17.9 °C
Humidité: Humidity % 57 % 80 %
Vitesse du vent: 0 km/h 0 km/h 21.7 km/h
Rafales: 0 km/h - -
Vent:- - ENE
Pression: 0 hPa 34130.9 hPa -
Précipitation: 7.62 mm    
Historical Graphs
 
 
Données statistiques pour Février 4, 2018
Heure Température Point de rosée Pression Vent Vitesse du vent Refales Humidité Pluie (taux horaire)
-17.8 °C -17.8 °C 0 hPa Calm     Humidity % 0 mm
00:00 -16.7 °C -16.7 °C 34130.9 hPa Calm   8 km/h 98 % 0 mm
00:05 -16.8 °C -16.7 °C 34130.9 hPa Calm     98 % 0 mm
00:10 -16.8 °C -16.7 °C 34130.9 hPa Calm   5.1 km/h 98 % 0 mm
00:15 -16.8 °C -16.7 °C 34164.7 hPa Calm   5.1 km/h 98 % 0 mm
00:20 -16.8 °C -16.7 °C 34164.7 hPa North 6.9 km/h 10.3 km/h 98 % 0 mm
00:25 -16.8 °C -16.7 °C 34164.7 hPa Calm   10.3 km/h 98 % 0 mm
00:30 -16.8 °C -16.7 °C 34164.7 hPa NNE 6.4 km/h 10.3 km/h 98 % 0 mm
00:35 -16.7 °C -16.7 °C 34164.7 hPa NE 8 km/h 12.7 km/h 98 % 0 mm
00:40 -16.7 °C -16.7 °C 34164.7 hPa North 7.6 km/h 15 km/h 98 % 0 mm
00:45 -16.7 °C -16.7 °C 34164.7 hPa North 9.8 km/h 15 km/h 98 % 0 mm
00:47 -16.7 °C -16.7 °C 34164.7 hPa NNE 12.2 km/h 15 km/h 98 % 0 mm
00:52 -16.6 °C -16.7 °C 34164.7 hPa North 10.3 km/h 12.2 km/h 98 % 0 mm
00:57 -16.6 °C -16.7 °C 34164.7 hPa North 5.1 km/h 12.2 km/h 98 % 0 mm
01:02 -16.5 °C -16.1 °C 34164.7 hPa North 12.2 km/h 12.7 km/h 98 % 0 mm
01:07 -16.4 °C -16.1 °C 34164.7 hPa Calm   19.2 km/h 98 % 0 mm
01:12 -16.3 °C -16.1 °C 34164.7 hPa Calm   19.2 km/h 98 % 0 mm
01:17 -16.3 °C -16.1 °C 34164.7 hPa NE 3.4 km/h 15 km/h 98 % 0 mm
01:22 -16.3 °C -16.1 °C 34164.7 hPa NW 10.3 km/h 11.1 km/h 98 % 0 mm
01:27 -16.2 °C -16.1 °C 34164.7 hPa NNE 15 km/h 16.3 km/h 98 % 0 mm
01:37 -16.2 °C -16.1 °C 34198.6 hPa NE 10.3 km/h 15 km/h 98 % 0 mm
01:42 -16.2 °C -16.1 °C 34198.6 hPa North 6.9 km/h 15 km/h 98 % 0 mm
01:47 -16.2 °C -16.1 °C 34198.6 hPa NNE 8.9 km/h 15.6 km/h 98 % 0 mm
01:52 -16.2 °C -16.1 °C 34198.6 hPa NNE 8 km/h 15.6 km/h 98 % 0 mm
01:57 -16.2 °C -16.1 °C 34198.6 hPa NNE 8.9 km/h 15.6 km/h 98 % 0 mm
02:02 -16.2 °C -16.1 °C 34198.6 hPa NE 16.3 km/h 19.2 km/h 98 % 0 mm
02:07 -16.2 °C -16.1 °C 34198.6 hPa NNE 19.2 km/h 22.5 km/h 98 % 0 mm
02:13 -16.2 °C -16.1 °C 34198.6 hPa NE 14.5 km/h 22.5 km/h 98 % 0 mm
02:18 -16.2 °C -16.1 °C 34235.8 hPa NE 16.9 km/h 22 km/h 98 % 0 mm
02:23 -16.1 °C -16.1 °C 34235.8 hPa NE 18.7 km/h 22.5 km/h 98 % 0 mm
02:28 -16.1 °C -16.1 °C 34235.8 hPa NE 15 km/h 22.5 km/h 98 % 0 mm
02:33 -16.1 °C -16.1 °C 34198.6 hPa NNE 19.2 km/h 24.8 km/h 98 % 0 mm
02:38 -16.1 °C -16.1 °C 34198.6 hPa NE 23 km/h 31.9 km/h 98 % 0 mm
02:43 -16.1 °C -16.1 °C 34198.6 hPa NE 26.2 km/h 31.9 km/h 98 % 0 mm
02:48 -16.1 °C -16.1 °C 34198.6 hPa NNE 16.9 km/h 31.9 km/h 98 % 0 mm
02:53 -16.1 °C -16.1 °C 34198.6 hPa NE 20.9 km/h 26.2 km/h 98 % 7.62 mm
02:58 -16.2 °C -16.1 °C 34198.6 hPa NE 20.9 km/h 34.1 km/h 98 % 7.62 mm
03:03 -16.2 °C -16.1 °C 34235.8 hPa NE 24.8 km/h 34.1 km/h 98 % 7.62 mm
03:08 -16.2 °C -16.1 °C 34235.8 hPa NE 19.6 km/h 36.5 km/h 98 % 7.62 mm
03:13 -16.2 °C -16.1 °C 34235.8 hPa NE 24.3 km/h 36.5 km/h 98 % 7.62 mm
03:18 -16.3 °C -16.1 °C 34235.8 hPa NE 20.9 km/h 34.8 km/h 98 % 7.62 mm
03:23 -16.3 °C -16.1 °C 34235.8 hPa NE 51 km/h 51 km/h 98 % 7.62 mm
03:28 -16.4 °C -16.1 °C 34235.8 hPa NNE 27.7 km/h 51 km/h 98 % 7.62 mm
03:33 -16.4 °C -16.1 °C 34235.8 hPa NNE 28.5 km/h 39.9 km/h 98 % 7.62 mm
03:38 -16.4 °C -16.1 °C 34235.8 hPa NNE 22.5 km/h 36.5 km/h 98 % 7.62 mm
03:43 -16.4 °C -16.1 °C 34235.8 hPa NE 23 km/h 36.5 km/h 98 % 7.62 mm
03:48 -16.5 °C -16.1 °C 34269.7 hPa NNE 39.4 km/h 39.4 km/h 98 % 7.62 mm
03:53 -16.5 °C -16.1 °C 34269.7 hPa NE 22 km/h 39.9 km/h 98 % 0 mm
03:58 -16.5 °C -16.1 °C 34269.7 hPa NNE 25.4 km/h 39.9 km/h 98 % 0 mm
04:03 -16.5 °C -16.1 °C 34303.6 hPa North 28.5 km/h 37.5 km/h 98 % 0 mm
04:08 -16.6 °C -16.7 °C 34303.6 hPa NE 22.5 km/h 40.7 km/h 98 % 0 mm
04:13 -16.6 °C -16.7 °C 34303.6 hPa NNE 39.4 km/h 44.1 km/h 97 % 0 mm
04:18 -16.6 °C -16.7 °C 34303.6 hPa ENE 27.2 km/h 44.1 km/h 96 % 0 mm
04:23 -16.6 °C -16.7 °C 34303.6 hPa NE 22 km/h 39.4 km/h 96 % 0 mm
04:28 -16.6 °C -16.7 °C 34269.7 hPa NE 33.6 km/h 37 km/h 95 % 0 mm
04:34 -16.6 °C -16.7 °C 34269.7 hPa NNE 20.9 km/h 33.6 km/h 95 % 0 mm
04:39 -16.7 °C -16.7 °C 34269.7 hPa NNE 25.4 km/h 33.6 km/h 95 % 0 mm
04:44 -16.7 °C -16.7 °C 34303.6 hPa North 22 km/h 27.2 km/h 95 % 0 mm
04:49 -16.7 °C -16.7 °C 34303.6 hPa NE 20.9 km/h 27.7 km/h 95 % 0 mm
04:54 -16.7 °C -16.7 °C 34303.6 hPa NE 27.7 km/h 27.7 km/h 95 % 0 mm
04:59 -16.7 °C -17.2 °C 34303.6 hPa NE 33.2 km/h 43.5 km/h 93 % 0 mm
05:04 -16.7 °C -17.2 °C 34303.6 hPa NE 27.2 km/h 46.3 km/h 91 % 0 mm
05:09 -16.7 °C -17.2 °C 34303.6 hPa NE 28.5 km/h 46.3 km/h 89 % 0 mm
05:14 -16.7 °C -17.8 °C 34337.4 hPa NE 26.2 km/h 49.2 km/h 88 % 0 mm
05:19 -16.8 °C -17.8 °C 34337.4 hPa NNE 45.9 km/h 49.2 km/h 86 % 0 mm
05:24 -16.8 °C -17.8 °C 34337.4 hPa NE 24.8 km/h 45.9 km/h 86 % 0 mm
05:29 -16.8 °C -17.8 °C 34337.4 hPa NNE 25.4 km/h 40.7 km/h 87 % 0 mm
05:34 -16.8 °C -17.8 °C 34337.4 hPa NE 26.7 km/h 39.9 km/h 87 % 0 mm
05:39 -16.8 °C -17.8 °C 34337.4 hPa NNE 26.2 km/h 39.9 km/h 87 % 0 mm
05:44 -16.8 °C -17.8 °C 34371.3 hPa NE 16.9 km/h 37 km/h 88 % 0 mm
05:49 -16.9 °C -17.8 °C 34371.3 hPa ENE 37.5 km/h 38.3 km/h 87 % 0 mm
05:54 -17 °C -18.3 °C 34371.3 hPa NE 31.4 km/h 43.5 km/h 85 % 0 mm
05:59 -17.1 °C -18.3 °C 34337.4 hPa NE 43.5 km/h 57.3 km/h 82 % 0 mm
06:04 -17.2 °C -18.9 °C 34337.4 hPa NE 32.3 km/h 59.1 km/h 79 % 0 mm
06:09 -17.2 °C -18.9 °C 34337.4 hPa NNE 26.2 km/h 59.1 km/h 81 % 0 mm
06:14 -17.2 °C -18.9 °C 34371.3 hPa NE 41.7 km/h 54.4 km/h 81 % 0 mm
06:19 -17.3 °C -18.9 °C 34371.3 hPa NE 32.3 km/h 45.1 km/h 80 % 0 mm
06:24 -17.4 °C -18.9 °C 34371.3 hPa NE 39.9 km/h 45.1 km/h 80 % 0 mm
06:29 -17.4 °C -18.9 °C 34371.3 hPa NNE 27.7 km/h 44.1 km/h 80 % 0 mm
06:34 -17.4 °C -18.9 °C 34371.3 hPa NE 26.7 km/h 45.1 km/h 80 % 0 mm
06:39 -17.5 °C -18.9 °C 34371.3 hPa NNE 33.6 km/h 45.1 km/h 81 % 0 mm
06:45 -17.6 °C -18.9 °C 34371.3 hPa NNE 26.7 km/h 36.5 km/h 80 % 0 mm
06:50 -17.6 °C -18.9 °C 34371.3 hPa NE 20.3 km/h 38.3 km/h 80 % 0 mm
06:55 -17.6 °C -18.9 °C 34371.3 hPa North 27.7 km/h 38.3 km/h 81 % 0 mm
07:00 -17.6 °C -18.9 °C 34405.1 hPa NNE 27.2 km/h 32.3 km/h 81 % 0 mm
07:05 -17.6 °C -18.9 °C 34405.1 hPa NE 19.6 km/h 37 km/h 81 % 0 mm
07:10 -17.6 °C -18.9 °C 34405.1 hPa NE 26.7 km/h 37 km/h 82 % 0 mm
07:15 -17.7 °C -18.9 °C 34405.1 hPa NNE 22.5 km/h 31.9 km/h 82 % 0 mm
07:20 -17.7 °C -18.9 °C 34405.1 hPa NE 22 km/h 34.1 km/h 82 % 0 mm
07:25 -17.7 °C -18.9 °C 34405.1 hPa NE 26.7 km/h 34.1 km/h 83 % 0 mm
07:30 -17.7 °C -18.9 °C 34428.8 hPa NE 18.7 km/h 37.5 km/h 83 % 0 mm
07:35 -17.7 °C -18.9 °C 34428.8 hPa NE 20.3 km/h 37.5 km/h 83 % 0 mm
07:40 -17.7 °C -18.9 °C 34428.8 hPa NE 22 km/h 32.3 km/h 83 % 0 mm
07:45 -17.6 °C -18.9 °C 34405.1 hPa NE 20.3 km/h 35.2 km/h 83 % 0 mm
07:50 -17.6 °C -18.9 °C 34405.1 hPa NE 25.4 km/h 37.5 km/h 83 % 0 mm
07:55 -17.6 °C -18.9 °C 34405.1 hPa NE 26.7 km/h 37.5 km/h 82 % 0 mm
08:00 -17.6 °C -18.9 °C 34428.8 hPa NE 28.5 km/h 33.2 km/h 82 % 0 mm
08:05 -17.6 °C -18.9 °C 34428.8 hPa NE 19.6 km/h 28.5 km/h 82 % 0 mm
08:11 -17.6 °C -18.9 °C 34428.8 hPa NE 14 km/h 22.5 km/h 82 % 0 mm
08:16 -17.6 °C -18.9 °C 34476.3 hPa NE 9.3 km/h 20.9 km/h 83 % 0 mm
08:21 -17.6 °C -18.9 °C 34476.3 hPa NNE 12.7 km/h 20.3 km/h 83 % 0 mm
08:26 -17.6 °C -18.9 °C 34476.3 hPa NE 14.5 km/h 20.3 km/h 84 % 0 mm
08:31 -17.6 °C -18.9 °C 34476.3 hPa Calm   18.7 km/h 84 % 0 mm
08:36 -17.7 °C -18.9 °C 34476.3 hPa ENE 9.8 km/h 14.5 km/h 84 % 0 mm
08:41 -17.6 °C -18.3 °C 34476.3 hPa Calm   12.7 km/h 85 % 0 mm
08:46 -17.6 °C -18.3 °C 34476.3 hPa NE 2.9 km/h 14 km/h 85 % 0 mm
08:51 -17.6 °C -18.3 °C 34476.3 hPa NE 12.7 km/h 14 km/h 87 % 0 mm
08:56 -17.6 °C -18.3 °C 34476.3 hPa NNE 14 km/h 16.9 km/h 87 % 0 mm
09:01 -17.5 °C -18.3 °C 34496.6 hPa NNE 12.7 km/h 19.2 km/h 87 % 0 mm
09:06 -17.4 °C -18.3 °C 34496.6 hPa NE 14 km/h 20.9 km/h 86 % 0 mm
09:11 -17.4 °C -18.3 °C 34496.6 hPa NNE 12.2 km/h 20.9 km/h 86 % 0 mm
09:16 -17.4 °C -18.3 °C 34496.6 hPa NE 15.6 km/h 18.7 km/h 86 % 0 mm
09:21 -17.3 °C -18.3 °C 34496.6 hPa NNE 14 km/h 19.6 km/h 86 % 0 mm
09:26 -17.3 °C -18.3 °C 34496.6 hPa NNE 12.2 km/h 20.9 km/h 86 % 0 mm
09:31 -17.3 °C -18.3 °C 34496.6 hPa NNE 12.7 km/h 20.9 km/h 86 % 0 mm
09:36 -17.2 °C -18.3 °C 34496.6 hPa NNE 9.3 km/h 15 km/h 86 % 0 mm
09:42 -17.2 °C -18.3 °C 34496.6 hPa NNE 11.1 km/h 15.6 km/h 86 % 0 mm
09:47 -17.2 °C -18.3 °C 34496.6 hPa NE 14.5 km/h 15.6 km/h 86 % 0 mm
09:52 -17.2 °C -18.3 °C 34496.6 hPa NE 20.9 km/h 20.9 km/h 86 % 0 mm
09:57 -17.1 °C -18.3 °C 34496.6 hPa NNE 19.6 km/h 22.5 km/h 85 % 0 mm
10:02 -17.1 °C -18.3 °C 34533.8 hPa NNE 16.9 km/h 22.5 km/h 85 % 0 mm
10:07 -17.1 °C -18.3 °C 34533.8 hPa NE 19.6 km/h 26.2 km/h 85 % 0 mm
10:12 -16.9 °C -17.8 °C 34533.8 hPa NE 22.5 km/h 27.2 km/h 85 % 0 mm
10:17 -16.8 °C -18.3 °C 34496.6 hPa North 19.2 km/h 27.2 km/h 84 % 0 mm
10:22 -16.7 °C -17.8 °C 34496.6 hPa NE 19.2 km/h 22.5 km/h 85 % 0 mm
10:27 -16.7 °C -17.8 °C 34496.6 hPa NE 19.6 km/h 22.5 km/h 84 % 0 mm
10:32 -16.7 °C -17.8 °C 34533.8 hPa NNE 17.4 km/h 23.8 km/h 83 % 0 mm
10:37 -16.7 °C -17.8 °C 34533.8 hPa NNE 22 km/h 24.8 km/h 82 % 0 mm
10:42 -16.6 °C -17.8 °C 34533.8 hPa NNE 19.2 km/h 24.8 km/h 83 % 0 mm
10:47 -16.6 °C -17.8 °C 34567.7 hPa NNE 19.2 km/h 26.7 km/h 82 % 0 mm
10:52 -16.5 °C -17.8 °C 34567.7 hPa NE 19.6 km/h 26.7 km/h 81 % 0 mm
10:57 -16.4 °C -17.8 °C 34567.7 hPa NNE 19.6 km/h 27.7 km/h 80 % 0 mm
11:02 -16.3 °C -18.3 °C 34533.8 hPa North 15.6 km/h 27.7 km/h 78 % 0 mm
11:07 -16.2 °C -17.8 °C 34533.8 hPa NE 19.2 km/h 25.4 km/h 78 % 0 mm
11:12 -16.2 °C -17.8 °C 34533.8 hPa NE 14 km/h 22.5 km/h 77 % 0 mm
11:17 -16 °C -17.8 °C 34567.7 hPa NNE 11.1 km/h 20.9 km/h 78 % 0 mm
11:22 -15.8 °C -17.8 °C 34567.7 hPa NE 10.3 km/h 22 km/h 76 % 0 mm
11:27 -15.7 °C -17.8 °C 34567.7 hPa ENE 22 km/h 22 km/h 76 % 0 mm
11:32 -15.7 °C -18.3 °C 34567.7 hPa ENE 20.3 km/h 27.7 km/h 72 % 0 mm
11:37 -15.6 °C -17.8 °C 34567.7 hPa NE 20.3 km/h 27.7 km/h 72 % 0 mm
11:42 -15.5 °C -18.3 °C 34567.7 hPa ENE 19.6 km/h 28.5 km/h 71 % 0 mm
11:47 -15.3 °C -17.8 °C 34567.7 hPa NE 20.9 km/h 28.5 km/h 71 % 0 mm
11:52 -15.3 °C -18.3 °C 34567.7 hPa NNE 22 km/h 33.6 km/h 69 % 0 mm
11:57 -15.3 °C -18.3 °C 34567.7 hPa NNE 26.2 km/h 33.6 km/h 67 % 0 mm
12:03 -15.3 °C -18.3 °C 34567.7 hPa NE 23.8 km/h 38.3 km/h 66 % 0 mm
12:08 -15.2 °C -18.3 °C 34567.7 hPa NNE 22 km/h 38.3 km/h 68 % 0 mm
12:13 -15.2 °C -18.3 °C 34567.7 hPa ENE 27.2 km/h 37.5 km/h 66 % 0 mm
12:18 -15.1 °C -18.3 °C 34567.7 hPa North 28.5 km/h 37.5 km/h 67 % 0 mm
12:23 -15.1 °C -18.3 °C 34567.7 hPa NE 20.3 km/h 34.8 km/h 65 % 0 mm
12:28 -15 °C -18.3 °C 34567.7 hPa ENE 27.7 km/h 32.3 km/h 65 % 0 mm
12:33 -14.9 °C -18.3 °C 34567.7 hPa NE 15 km/h 31.4 km/h 66 % 0 mm
12:38 -14.9 °C -18.3 °C 34567.7 hPa NE 26.7 km/h 50.5 km/h 63 % 0 mm
12:43 -14.8 °C -18.3 °C 34567.7 hPa NNE 31.9 km/h 50.5 km/h 62 % 0 mm
12:48 -14.6 °C -18.3 °C 34567.7 hPa North 26.7 km/h 44.6 km/h 63 % 0 mm
12:53 -14.6 °C -18.3 °C 34567.7 hPa NE 32.3 km/h 45.9 km/h 61 % 0 mm
12:58 -14.7 °C -18.3 °C 34567.7 hPa NE 33.2 km/h 45.9 km/h 62 % 0 mm
13:03 -14.7 °C -18.3 °C 34601.5 hPa ENE 39.9 km/h 44.6 km/h 62 % 0 mm
13:08 -14.6 °C -18.3 °C 34601.5 hPa NNE 44.6 km/h 44.6 km/h 61 % 0 mm
13:13 -14.6 °C -18.3 °C 34601.5 hPa NE 32.3 km/h 45.1 km/h 60 % 0 mm
13:18 -14.4 °C -18.3 °C 34567.7 hPa NNE 20.9 km/h 45.1 km/h 59 % 0 mm
13:23 -14.4 °C -18.3 °C 34567.7 hPa NE 33.6 km/h 44.6 km/h 59 % 0 mm
13:28 -14.3 °C -18.3 °C 34567.7 hPa NE 31.9 km/h 44.6 km/h 58 % 0 mm
13:33 -14.4 °C -18.3 °C 34567.7 hPa NNE 44.6 km/h 44.6 km/h 59 % 0 mm
13:38 -14.7 °C -18.3 °C 34567.7 hPa NE 22.5 km/h 45.9 km/h 59 % 0 mm
13:43 -14.8 °C -18.3 °C 34567.7 hPa NNE 36 km/h 45.9 km/h 60 % 0 mm
13:48 -14.6 °C -18.3 °C 34567.7 hPa NE 28.5 km/h 41.2 km/h 63 % 0 mm
13:53 -14.3 °C -17.8 °C 34567.7 hPa NE 28.5 km/h 37 km/h 64 % 0 mm
13:58 -14.4 °C -18.3 °C 34567.7 hPa NNW 26.2 km/h 33.6 km/h 62 % 0 mm
14:03 -14.6 °C -18.3 °C 34567.7 hPa NNE 33.6 km/h 40.7 km/h 62 % 0 mm
14:08 -14.7 °C -17.8 °C 34567.7 hPa NNE 31.9 km/h 40.7 km/h 65 % 0 mm
14:13 -14.8 °C -18.3 °C 34567.7 hPa NE 22.5 km/h 56.6 km/h 63 % 0 mm
14:18 -14.8 °C -17.8 °C 34567.7 hPa NE 52 km/h 56.6 km/h 65 % 0 mm
14:23 -14.6 °C -17.2 °C 34567.7 hPa NNE 49.7 km/h 54.4 km/h 69 % 0 mm
14:29 -14.8 °C -17.8 °C 34567.7 hPa NNE 33.6 km/h 51.5 km/h 69 % 0 mm
14:34 -14.7 °C -17.8 °C 34567.7 hPa NE 26.7 km/h 51.5 km/h 67 % 0 mm
14:39 -14.7 °C -17.8 °C 34567.7 hPa NNE 20.9 km/h 49.2 km/h 67 % 0 mm
14:44 -14.8 °C -17.8 °C 34567.7 hPa NE 62 km/h 62 km/h 68 % 0 mm
14:49 -14.9 °C -17.8 °C 34567.7 hPa North 51 km/h 62 km/h 68 % 0 mm
14:54 -15 °C -18.3 °C 34567.7 hPa NE 51 km/h 63.2 km/h 66 % 0 mm
14:59 -14.7 °C -17.2 °C 34567.7 hPa North 39.9 km/h 63.2 km/h 69 % 0 mm
15:04 -14.7 °C -17.8 °C 34567.7 hPa NNE 53.9 km/h 53.9 km/h 64 % 0 mm
15:09 -14.9 °C -17.8 °C 34567.7 hPa NNE 36 km/h 55.2 km/h 67 % 0 mm
15:14 -15 °C -18.3 °C 34567.7 hPa NNE 45.9 km/h 57.3 km/h 65 % 0 mm
15:19 -15.2 °C -18.3 °C 34567.7 hPa NNE 44.1 km/h 58.6 km/h 65 % 0 mm
15:24 -14.9 °C -18.3 °C 34567.7 hPa NE 59.5 km/h 59.5 km/h 65 % 0 mm
15:29 -14.8 °C -18.9 °C 34567.7 hPa NE 44.6 km/h 59.5 km/h 59 % 0 mm
15:34 -14.9 °C -18.9 °C 34567.7 hPa North 45.9 km/h 51.5 km/h 58 % 0 mm
15:39 -14.8 °C -18.3 °C 34567.7 hPa NE 22.5 km/h 51.5 km/h 61 % 0 mm
15:44 -14.8 °C -18.9 °C 34533.8 hPa NNE 32.3 km/h 51.5 km/h 58 % 0 mm
15:49 -14.8 °C -18.9 °C 34533.8 hPa NE 40.7 km/h 51 km/h 59 % 0 mm
15:54 -15.1 °C -19.4 °C 34533.8 hPa NE 45.1 km/h 63.2 km/h 58 % 0 mm
15:59 -15.3 °C -19.4 °C 34533.8 hPa NNE 59.1 km/h 63.2 km/h 57 % 0 mm
16:04 -15.3 °C -19.4 °C 34533.8 hPa NE 39.4 km/h 59.1 km/h 60 % 0 mm
16:09 -15.3 °C -18.9 °C 34533.8 hPa NE 39.9 km/h 48.6 km/h 61 % 0 mm
16:14 -15.3 °C -19.4 °C 34601.5 hPa NNE 32.3 km/h 51.5 km/h 59 % 0 mm
16:20 -15.4 °C -19.4 °C 34601.5 hPa North 34.1 km/h 52.8 km/h 58 % 0 mm
16:25 -15.4 °C -19.4 °C 34601.5 hPa NE 28.5 km/h 52.8 km/h 61 % 0 mm
16:30 -15.5 °C -19.4 °C 34601.5 hPa NE 46.3 km/h 51 km/h 62 % 0 mm
16:35 -15.6 °C -19.4 °C 34601.5 hPa NE 28.5 km/h 55.2 km/h 62 % 0 mm
16:40 -15.6 °C -18.9 °C 34601.5 hPa ENE 24.3 km/h 55.2 km/h 63 % 0 mm
16:45 -15.7 °C -19.4 °C 34601.5 hPa NE 39.4 km/h 49.2 km/h 62 % 0 mm
16:50 -15.7 °C -19.4 °C 34601.5 hPa NE 37 km/h 45.9 km/h 62 % 0 mm
16:55 -15.8 °C -19.4 °C 34601.5 hPa ENE 39.9 km/h 44.6 km/h 62 % 0 mm
17:00 -15.9 °C -19.4 °C 34601.5 hPa North 27.7 km/h 44.6 km/h 64 % 0 mm
17:05 -15.9 °C -19.4 °C 34601.5 hPa ENE 22.5 km/h 41.7 km/h 63 % 0 mm
17:10 -16 °C -19.4 °C 34601.5 hPa NE 33.6 km/h 51.5 km/h 63 % 0 mm
17:15 -16.1 °C -19.4 °C 34601.5 hPa ENE 26.7 km/h 51.5 km/h 65 % 0 mm
17:20 -16.1 °C -19.4 °C 34601.5 hPa NE 37 km/h 45.1 km/h 65 % 0 mm
17:25 -16.1 °C -19.4 °C 34601.5 hPa NE 26.7 km/h 40.7 km/h 65 % 0 mm
17:30 -16.2 °C -18.9 °C 34635.4 hPa NE 31.9 km/h 37.5 km/h 67 % 0 mm
17:35 -16.2 °C -19.4 °C 34635.4 hPa NE 30.7 km/h 39.9 km/h 66 % 0 mm
17:40 -16.3 °C -19.4 °C 34635.4 hPa NNE 31.9 km/h 39.9 km/h 67 % 0 mm
17:45 -16.3 °C -19.4 °C 34635.4 hPa NE 33.6 km/h 39.9 km/h 67 % 0 mm
17:50 -16.3 °C -18.9 °C 34635.4 hPa NE 29.5 km/h 39.9 km/h 68 % 0 mm
17:55 -16.3 °C -18.9 °C 34635.4 hPa NE 22 km/h 38.3 km/h 68 % 0 mm
18:00 -16.3 °C -18.9 °C 34635.4 hPa NE 27.2 km/h 44.6 km/h 68 % 0 mm
18:05 -16.3 °C -18.9 °C 34635.4 hPa NE 24.3 km/h 44.6 km/h 69 % 0 mm
18:11 -16.3 °C -18.9 °C 34635.4 hPa NE 23.8 km/h 34.1 km/h 69 % 0 mm
18:16 -16.3 °C -18.9 °C 34635.4 hPa NNE 20.9 km/h 30.7 km/h 69 % 0 mm
18:21 -16.3 °C -18.9 °C 34635.4 hPa NE 20.9 km/h 33.6 km/h 69 % 0 mm
18:26 -16.4 °C -18.9 °C 34635.4 hPa NE 20.3 km/h 33.6 km/h 69 % 0 mm
18:31 -16.4 °C -18.9 °C 34601.5 hPa NNE 22.5 km/h 26.7 km/h 70 % 0 mm
18:36 -16.6 °C -18.9 °C 34601.5 hPa NE 16.9 km/h 22.5 km/h 71 % 0 mm
18:41 -16.6 °C -18.9 °C 34601.5 hPa NE 17.4 km/h 22.5 km/h 71 % 0 mm
18:46 -16.6 °C -18.9 °C 34635.4 hPa NE 15 km/h 22.5 km/h 72 % 0 mm
18:51 -16.7 °C -18.9 °C 34635.4 hPa NNE 20.3 km/h 22.5 km/h 72 % 0 mm
18:56 -16.7 °C -18.9 °C 34635.4 hPa NE 20.3 km/h 22 km/h 74 % 0 mm
19:01 -16.7 °C -18.9 °C 34635.4 hPa NE 19.2 km/h 23 km/h 74 % 0 mm
19:06 -16.6 °C -18.9 °C 34635.4 hPa NNE 22 km/h 23 km/h 74 % 0 mm
19:11 -16.6 °C -18.9 °C 34635.4 hPa NNE 20.3 km/h 23.8 km/h 74 % 0 mm
19:16 -16.7 °C -18.9 °C 34635.4 hPa NE 22 km/h 23.8 km/h 74 % 0 mm
19:21 -16.7 °C -18.3 °C 34635.4 hPa NE 20.9 km/h 22.5 km/h 75 % 0 mm
19:26 -16.8 °C -18.9 °C 34635.4 hPa NE 16.3 km/h 22.5 km/h 76 % 0 mm
19:31 -16.8 °C -18.9 °C 34669.3 hPa NE 14.5 km/h 22 km/h 76 % 0 mm
19:36 -16.9 °C -18.9 °C 34669.3 hPa NNE 10.3 km/h 19.2 km/h 77 % 0 mm
19:41 -16.9 °C -18.9 °C 34669.3 hPa NE 5.1 km/h 19.2 km/h 77 % 0 mm
19:46 -17.1 °C -18.9 °C 34669.3 hPa NNE 14.5 km/h 15 km/h 78 % 0 mm
19:51 -17.2 °C -18.9 °C 34669.3 hPa NNE 16.3 km/h 16.3 km/h 79 % 0 mm
19:56 -17.2 °C -18.9 °C 34669.3 hPa NNE 9.3 km/h 16.9 km/h 79 % 0 mm
20:01 -17.2 °C -18.9 °C 34703.1 hPa NE 11.1 km/h 16.9 km/h 80 % 0 mm
20:06 -17.2 °C -18.9 °C 34703.1 hPa NNE 7.6 km/h 15.6 km/h 81 % 0 mm
20:11 -17.2 °C -18.9 °C 34703.1 hPa NNE 9.3 km/h 15.6 km/h 81 % 0 mm
20:17 -17.2 °C -18.3 °C 34669.3 hPa NNE 9.3 km/h 14.5 km/h 82 % 0 mm
20:22 -17.2 °C -18.3 °C 34669.3 hPa NNE 2.3 km/h 14.5 km/h 82 % 0 mm
20:26 -17.2 °C -18.3 °C 34669.3 hPa NNE 8.9 km/h 11.1 km/h 82 % 0 mm
20:32 -17.2 °C -18.3 °C 34703.1 hPa NE 9.3 km/h 11.1 km/h 82 % 0 mm
20:37 -17.2 °C -18.3 °C 34703.1 hPa NNE 9.8 km/h 15 km/h 82 % 0 mm
20:42 -17.2 °C -18.3 °C 34703.1 hPa NE 8.9 km/h 15.6 km/h 82 % 0 mm
20:47 -17.2 °C -18.3 °C 34703.1 hPa NNE 8.9 km/h 15.6 km/h 82 % 0 mm
20:52 -17.2 °C -18.3 °C 34703.1 hPa NE 4.2 km/h 12.2 km/h 82 % 0 mm
20:57 -17.2 °C -18.3 °C 34703.1 hPa NNW 9.8 km/h 11.1 km/h 82 % 0 mm
21:02 -17.2 °C -18.3 °C 34703.1 hPa NE 10.3 km/h 11.1 km/h 82 % 0 mm
21:07 -17.2 °C -18.3 °C 34703.1 hPa NNE 8.9 km/h 11.1 km/h 82 % 0 mm
21:12 -17.2 °C -18.3 °C 34703.1 hPa NNW 3.4 km/h 9.8 km/h 82 % 0 mm
21:17 -17.2 °C -18.3 °C 34703.1 hPa NE 5.6 km/h 11.1 km/h 82 % 0 mm
21:22 -17.2 °C -18.3 °C 34703.1 hPa NNE 2.9 km/h 11.1 km/h 82 % 0 mm
21:27 -17.2 °C -18.3 °C 34703.1 hPa North 14.5 km/h 14.5 km/h 82 % 0 mm
21:32 -17.1 °C -18.3 °C 34703.1 hPa NNW 10.3 km/h 14.5 km/h 84 % 0 mm
21:37 -17.1 °C -18.3 °C 34703.1 hPa NNE 3.4 km/h 15 km/h 84 % 0 mm
21:42 -17.1 °C -18.3 °C 34703.1 hPa North 8 km/h 15 km/h 84 % 0 mm
21:47 -17.1 °C -18.3 °C 34703.1 hPa Calm   14.5 km/h 84 % 0 mm
21:53 -17.1 °C -18.3 °C 34703.1 hPa NNE 10.3 km/h 14.5 km/h 84 % 0 mm
21:58 -17.1 °C -18.3 °C 34703.1 hPa NE 10.3 km/h 16.3 km/h 84 % 0 mm
22:03 -16.9 °C -17.8 °C 34703.1 hPa NNE 12.7 km/h 16.9 km/h 86 % 0 mm
22:08 -16.9 °C -17.8 °C 34703.1 hPa NE 6.4 km/h 16.9 km/h 86 % 0 mm
22:13 -16.9 °C -17.8 °C 34703.1 hPa NE 20.3 km/h 20.3 km/h 86 % 0 mm
22:18 -16.9 °C -17.8 °C 34703.1 hPa NE 14.5 km/h 20.3 km/h 86 % 0 mm
22:23 -16.9 °C -17.8 °C 34703.1 hPa North 14 km/h 20.9 km/h 86 % 0 mm
22:28 -16.9 °C -17.8 °C 34703.1 hPa North 15.6 km/h 20.9 km/h 86 % 0 mm
22:33 -16.7 °C -17.8 °C 34703.1 hPa NNE 17.9 km/h 22 km/h 88 % 0 mm
22:38 -16.7 °C -17.8 °C 34703.1 hPa NE 10.3 km/h 22 km/h 88 % 0 mm
22:43 -16.7 °C -17.8 °C 34703.1 hPa ENE 15.6 km/h 26.2 km/h 88 % 0 mm
22:48 -16.7 °C -17.8 °C 34669.3 hPa NE 22.5 km/h 26.2 km/h 88 % 0 mm
22:53 -16.6 °C -17.2 °C 34669.3 hPa NE 26.2 km/h 30.7 km/h 90 % 0 mm
22:58 -16.6 °C -17.2 °C 34669.3 hPa NNE 22.5 km/h 30.7 km/h 90 % 0 mm
23:03 -16.6 °C -17.2 °C 34669.3 hPa ENE 22.5 km/h 28.5 km/h 90 % 0 mm
23:08 -16.5 °C -17.2 °C 34669.3 hPa ENE 22.5 km/h 34.8 km/h 90 % 0 mm
23:13 -16.5 °C -17.2 °C 34669.3 hPa NE 16.9 km/h 34.8 km/h 90 % 0 mm
23:19 -16.5 °C -17.2 °C 34669.3 hPa East 18.7 km/h 22.5 km/h 90 % 0 mm
23:24 -16.5 °C -17.2 °C 34669.3 hPa ENE 16.3 km/h 20.9 km/h 90 % 0 mm
23:29 -16.5 °C -17.2 °C 34669.3 hPa NE 14 km/h 19.2 km/h 90 % 0 mm
23:34 -16.5 °C -17.2 °C 34669.3 hPa East 14 km/h 22 km/h 90 % 0 mm
23:39 -16.5 °C -17.2 °C 34669.3 hPa ENE 9.3 km/h 22 km/h 90 % 0 mm
23:44 -16.5 °C -17.2 °C 34669.3 hPa ENE 14 km/h 18.7 km/h 90 % 0 mm
23:49 -16.5 °C -17.2 °C 34669.3 hPa NE 12.2 km/h 18.7 km/h 90 % 0 mm
23:54 -16.5 °C -17.2 °C 34669.3 hPa East 14 km/h 20.9 km/h 90 % 0 mm
23:59 -16.5 °C -17.2 °C 34703.1 hPa NE 22 km/h 22 km/h 90 % 0 mm
Le Gheer Warneton
Courtoisie de Weather Underground - 2.25 mb

Mise a jour : 25/02/2018 14:59:11
Généré par Cumulus 1.9.4 (1099)